Weather History for KTCC - September, 2013

Change the Weather History Date:

Wednesday, September 11, 2013

  Actual Average Record
Temperature  
Mean Temperature 68 °F -  
Max Temperature 71 °F 88 °F 98 °F (1974)
Min Temperature 66 °F 59 °F 46 °F (1907)
Cooling Degree Days 3    
Growing Degree Days 18 (Base 50)    
Moisture  
Dew Point 65 °F    
Average Humidity 86    
Maximum Humidity 90    
Minimum Humidity 81    
Precipitation  
Precipitation 1.55 in - - ()
Sea Level Pressure  
Sea Level Pressure 30.10 in    
Wind  
Wind Speed 7 mph (SSE)    
Max Wind Speed 15 mph    
Max Gust Speed 20 mph    
Visibility 7 miles    
Events Fog , Rain    
Averages and records for this station are not official NWS values.
T = Trace of Precipitation, MM = Missing Value Source: NWS Daily Summary

Daily Weather History Graph

Daily Weather History Graph

Search for Another Location

Airport or City:

Trip Planner

Search our weather history database for the weather conditions in past years. The results will help you decide how hot, cold, wet, or windy it might be!

Date:

Astronomy

Sep. 11, 2013 Rise Set
Actual Time 6:34 AM MDT 7:06 PM MDT
Civil Twilight 6:08 AM MDT 7:32 PM MDT
Nautical Twilight 5:38 AM MDT 8:02 PM MDT
Astronomical Twilight 5:08 AM MDT 8:32 PM MDT
Moon 12:50 PM MDT (9/11) 11:19 PM MDT (9/11)
Length of Visible Light 13h 23m
Length of Day
12h 32m
Waxing Crescent, 39% of the Moon is Illuminated
Sep 11
Waxing Crescent
Sep 12
First Quarter
Sep 19
Full
Sep 26
Last Quarter
Oct 4
New

Hourly Weather History & Observations

Time (MDT) Temp. Dew Point Humidity Pressure Visibility Wind Dir Wind Speed Gust Speed Precip Events Conditions
12:41 AM 68.0 °F 64.4 °F 88% 30.14 in 2.5 mi North 5.8 mph - 0.06 in Rain Heavy Rain
12:53 AM 68.0 °F 64.9 °F 90% 29.97 in 1.5 mi Calm Calm - 0.19 in Rain Heavy Rain
1:04 AM 68.0 °F 64.4 °F 88% 30.14 in 0.5 mi Calm Calm - 0.33 in Fog , Rain Heavy Rain
1:15 AM 68.0 °F 64.4 °F 88% 30.15 in 2.5 mi Variable 6.9 mph - 0.40 in Rain Light Rain
1:22 AM 68.0 °F 64.4 °F 88% 30.15 in 6.0 mi Calm Calm - 0.42 in Rain Rain
1:53 AM 69.1 °F 64.9 °F 87% 29.96 in 8.0 mi SSW 3.5 mph - 0.46 in Rain Light Rain
2:18 AM 69.8 °F 64.4 °F 83% 30.14 in 10.0 mi SSW 6.9 mph - 0.00 in Rain Light Rain
2:53 AM 69.1 °F 64.9 °F 87% 29.95 in 7.0 mi South 5.8 mph - 0.04 in Rain Rain
3:53 AM 69.1 °F 64.9 °F 87% 29.95 in 8.0 mi South 5.8 mph - 0.01 in Rain Light Rain
4:53 AM 69.1 °F 66.0 °F 90% 29.96 in 7.0 mi SE 3.5 mph - 0.03 in Rain Rain
5:16 AM 69.8 °F 64.4 °F 83% 30.14 in 5.0 mi SE 3.5 mph - 0.04 in Rain Rain
5:40 AM 69.8 °F 64.4 °F 83% 30.14 in 8.0 mi SE 4.6 mph - 0.05 in Rain Light Rain
5:53 AM 69.1 °F 64.9 °F 87% 29.99 in 7.0 mi SE 4.6 mph - 0.05 in Rain Rain
6:21 AM 69.8 °F 64.4 °F 83% 30.14 in 8.0 mi ESE 5.8 mph - 0.00 in Rain Light Rain
6:53 AM 69.1 °F 64.9 °F 87% 29.99 in 10.0 mi SE 5.8 mph - 0.00 in Rain Light Rain
7:53 AM 69.1 °F 64.9 °F 87% 30.01 in 8.0 mi SE 5.8 mph - 0.00 in Rain Light Rain
8:21 AM 69.8 °F 66.2 °F 88% 30.17 in 4.0 mi SE 5.8 mph - 0.01 in Rain Rain
8:36 AM 69.8 °F 66.2 °F 88% 30.18 in 4.0 mi ESE 5.8 mph - 0.02 in Rain Rain
8:53 AM 69.1 °F 66.0 °F 90% 30.03 in 5.0 mi SE 8.1 mph - 0.02 in Rain Light Rain
9:53 AM 69.1 °F 66.0 °F 90% 30.04 in 3.0 mi SE 11.5 mph - 0.03 in Rain Rain
10:00 AM 69.8 °F 66.2 °F 88% 30.19 in 4.0 mi SE 11.5 mph - 0.00 in Rain Light Rain
10:04 AM 69.8 °F 64.4 °F 83% 30.19 in 3.0 mi SE 12.7 mph - 0.01 in Rain Rain
10:09 AM 69.8 °F 66.2 °F 88% 30.19 in 1.8 mi SE 13.8 mph - 0.05 in Rain Heavy Rain
10:23 AM 68.0 °F 64.4 °F 88% 30.19 in 3.0 mi SE 12.7 mph - 0.11 in Rain Rain
10:30 AM 69.8 °F 64.4 °F 83% 30.19 in 5.0 mi SE 10.4 mph - 0.12 in Rain Rain
10:53 AM 69.1 °F 66.0 °F 90% 30.03 in 3.0 mi SE 9.2 mph - 0.15 in Rain Rain
11:39 AM 69.8 °F 66.2 °F 88% 30.18 in 10.0 mi SE 11.5 mph - 0.02 in   Overcast
11:46 AM 69.8 °F 66.2 °F 88% 30.18 in 10.0 mi SE 11.5 mph - 0.02 in   Overcast
11:53 AM 70.0 °F 66.0 °F 87% 30.04 in 10.0 mi SE 11.5 mph - 0.02 in   Overcast
12:01 PM 69.8 °F 66.2 °F 88% 30.19 in 10.0 mi SE 11.5 mph - N/A   Overcast
12:18 PM 69.8 °F 66.2 °F 88% 30.19 in 10.0 mi SE 12.7 mph 19.6 mph 0.00 in Rain Light Rain
12:53 PM 70.0 °F 64.0 °F 81% 30.04 in 10.0 mi SE 12.7 mph - 0.00 in Rain Light Rain
1:00 PM 69.8 °F 64.4 °F 83% 30.19 in 10.0 mi SSE 10.4 mph - 0.00 in Rain Light Rain
1:39 PM 69.8 °F 64.4 °F 83% 30.17 in 10.0 mi South 12.7 mph - 0.00 in Rain Light Rain
1:53 PM 69.1 °F 64.0 °F 84% 30.03 in 10.0 mi South 10.4 mph - 0.00 in Rain Light Rain
2:53 PM 70.0 °F 64.9 °F 84% 30.01 in 7.0 mi South 11.5 mph - 0.00 in Rain Light Rain
2:58 PM 69.8 °F 64.4 °F 83% 30.17 in 2.5 mi South 15.0 mph 19.6 mph 0.03 in Rain Heavy Rain
3:10 PM 68.0 °F 64.4 °F 88% 30.17 in 1.5 mi South 15.0 mph - 0.12 in Rain Heavy Rain
3:20 PM 68.0 °F 64.4 °F 88% 30.17 in 0.5 mi SSE 11.5 mph - 0.39 in Fog , Rain Heavy Rain
3:27 PM 68.0 °F 64.4 °F 88% 30.17 in 1.0 mi SSE 5.8 mph - 0.44 in Rain Heavy Rain
3:34 PM 68.0 °F 64.4 °F 88% 30.16 in 3.0 mi SE 5.8 mph - 0.45 in Rain Rain
3:53 PM 70.0 °F 66.0 °F 87% 30.01 in 10.0 mi SSE 10.4 mph - 0.45 in   Mostly Cloudy
4:53 PM 70.0 °F 64.9 °F 84% 30.00 in 9.0 mi SSE 8.1 mph - 0.00 in Rain Light Rain
5:28 PM 69.8 °F 66.2 °F 88% 30.15 in 2.5 mi SE 3.5 mph - 0.04 in Rain Rain
5:37 PM 69.8 °F 66.2 °F 88% 30.15 in 3.0 mi ESE 3.5 mph - 0.07 in Rain Heavy Rain
5:53 PM 70.0 °F 66.0 °F 87% 30.01 in 8.0 mi SE 5.8 mph - 0.07 in Rain Light Rain
6:15 PM 69.8 °F 66.2 °F 88% 30.16 in 9.0 mi ESE 5.8 mph - 0.00 in Rain Light Rain
6:53 PM 70.0 °F 66.0 °F 87% 30.01 in 10.0 mi SSE 8.1 mph - 0.00 in Rain Light Rain
7:08 PM 69.8 °F 66.2 °F 88% 30.17 in 7.0 mi SSE 8.1 mph - 0.01 in Rain Rain
7:53 PM 70.0 °F 64.9 °F 84% 30.03 in 10.0 mi South 6.9 mph - 0.03 in Rain Light Rain
8:01 PM 69.8 °F 64.4 °F 83% 30.18 in 9.0 mi South 6.9 mph - 0.00 in Rain Light Rain
8:53 PM 68.0 °F 63.0 °F 84% 30.04 in 10.0 mi South 10.4 mph - 0.00 in Rain Light Rain
9:53 PM 66.9 °F 64.0 °F 90% 30.04 in 10.0 mi SE 6.9 mph - 0.00 in   Mostly Cloudy
10:53 PM 66.9 °F 63.0 °F 87% 30.04 in 10.0 mi WNW 4.6 mph - N/A   Overcast
11:49 PM 68.0 °F 62.6 °F 83% 30.19 in 10.0 mi NW 4.6 mph - N/A   Overcast
11:53 PM 68.0 °F 63.0 °F 84% 30.05 in 10.0 mi NW 3.5 mph - N/A   Overcast